When you browse on this site, cookies collect data to enhance your experience and personalize the content and advertising you see.
Visit our Privacy Policy to learn more. By continuing to use the site, you agree to this use of cookies and data.
  • Em Portugal
  • Lista de países
  • Para 7 dias
  • Temperatura da água
  • Mapas de satélite
  • Mapa do tempo
  • Widgets de tempo
  • user-avatar
    Iniciar Sessão

    Previsão horária em Katki

    Hoje, 23 Julho, Terça-feira

    Tempo Temperatura Precipitação Vento Pressão Humidade
    00:00 +16°C° 0 mm 2 m/s 760 mmHg 81%
    01:00 +16°C° 0 mm 2 m/s 759 mmHg 85%
    02:00 +16°C° 0 mm 2 m/s 759 mmHg 84%
    03:00 +16°C° 0 mm 2 m/s 759 mmHg 83%
    04:00 +16°C° 0 mm 2 m/s 759 mmHg 82%
    05:00 +16°C° 0.1 mm 1 m/s 759 mmHg 84%
    06:00 +16°C° 0.1 mm 1 m/s 759 mmHg 85%
    07:00 +16°C° 0.1 mm 1 m/s 759 mmHg 87%
    08:00 +16°C° 0 mm 1 m/s 759 mmHg 86%
    09:00 +18°C° 0 mm 1 m/s 759 mmHg 85%
    10:00 +18°C° 0 mm 1 m/s 759 mmHg 84%
    11:00 +17°C° 0 mm 2 m/s 759 mmHg 84%
    12:00 +17°C° 0 mm 2 m/s 759 mmHg 83%
    13:00 +18°C° 0 mm 2 m/s 759 mmHg 83%
    14:00 +18°C° 0 mm 2 m/s 759 mmHg 83%
    15:00 +18°C° 0 mm 2 m/s 759 mmHg 83%
    16:00 +19°C° 0 mm 2 m/s 759 mmHg 82%
    17:00 +20°C° 0 mm 1 m/s 759 mmHg 85%
    18:00 +20°C° 0 mm 1 m/s 759 mmHg 87%
    19:00 +20°C° 0 mm 1 m/s 758 mmHg 90%
    20:00 +19°C° 0 mm 1 m/s 758 mmHg 92%
    21:00 +19°C° 0 mm 1 m/s 759 mmHg 94%
    22:00 +18°C° 0 mm 1 m/s 759 mmHg 95%
    23:00 +18°C° 0 mm 1 m/s 759 mmHg 96%

    Amanhã, 24 Julho, Quarta-feira

    Tempo Temperatura Precipitação Vento Pressão Humidade
    00:00 +18°C° 0 mm 1 m/s 758 mmHg 96%
    01:00 +18°C° 0 mm 1 m/s 758 mmHg 96%
    02:00 +18°C° 0 mm 1 m/s 758 mmHg 96%
    03:00 +18°C° 0 mm 1 m/s 758 mmHg 96%
    04:00 +18°C° 0 mm 1 m/s 758 mmHg 97%
    05:00 +19°C° 0.1 mm 1 m/s 758 mmHg 93%
    06:00 +20°C° 0.1 mm 1 m/s 758 mmHg 90%
    07:00 +21°C° 0.1 mm 1 m/s 758 mmHg 87%
    08:00 +22°C° 0.2 mm 1 m/s 758 mmHg 83%
    09:00 +23°C° 0.2 mm 1 m/s 758 mmHg 79%
    10:00 +24°C° 0.2 mm 2 m/s 759 mmHg 75%
    11:00 +25°C° 0.3 mm 2 m/s 758 mmHg 72%
    12:00 +26°C° 0.3 mm 2 m/s 758 mmHg 69%
    13:00 +26°C° 0.3 mm 2 m/s 758 mmHg 66%
    14:00 +26°C° 0.1 mm 2 m/s 758 mmHg 65%
    15:00 +26°C° 0.1 mm 3 m/s 758 mmHg 65%
    16:00 +26°C° 0.1 mm 3 m/s 758 mmHg 64%
    17:00 +25°C° 0 mm 3 m/s 758 mmHg 70%
    18:00 +23°C° 0 mm 2 m/s 758 mmHg 77%
    19:00 +21°C° 0 mm 2 m/s 758 mmHg 83%
    20:00 +20°C° 0 mm 2 m/s 758 mmHg 87%
    21:00 +18°C° 0 mm 2 m/s 759 mmHg 90%
    22:00 +17°C° 0 mm 2 m/s 759 mmHg 93%
    23:00 +18°C° 0 mm 1 m/s 759 mmHg 93%

    Depois de amanhã, 25 Julho, Quinta-feira

    Tempo Temperatura Precipitação Vento Pressão Humidade
    00:00 +16°C° 0 mm 1 m/s 759 mmHg 93%
    01:00 +16°C° 0 mm 1 m/s 759 mmHg 93%
    02:00 +16°C° 0 mm 1 m/s 759 mmHg 93%
    03:00 +15°C° 0 mm 1 m/s 759 mmHg 93%
    04:00 +15°C° 0 mm 1 m/s 759 mmHg 93%
    05:00 +18°C° 0 mm 1 m/s 759 mmHg 87%
    06:00 +19°C° 0 mm 1 m/s 759 mmHg 81%
    07:00 +20°C° 0 mm 2 m/s 759 mmHg 75%
    08:00 +21°C° 0 mm 2 m/s 759 mmHg 71%
    09:00 +23°C° 0 mm 2 m/s 759 mmHg 66%
    10:00 +25°C° 0 mm 2 m/s 760 mmHg 61%
    11:00 +25°C° 0 mm 3 m/s 759 mmHg 58%
    12:00 +26°C° 0 mm 3 m/s 759 mmHg 55%
    13:00 +26°C° 0 mm 3 m/s 759 mmHg 51%
    14:00 +26°C° 0 mm 4 m/s 759 mmHg 53%
    15:00 +25°C° 0 mm 4 m/s 759 mmHg 54%
    16:00 +25°C° 0 mm 4 m/s 759 mmHg 56%
    17:00 +22°C° 0 mm 4 m/s 759 mmHg 63%
    18:00 +21°C° 0 mm 3 m/s 759 mmHg 70%
    19:00 +19°C° 0 mm 3 m/s 758 mmHg 77%
    20:00 +18°C° 0 mm 2 m/s 759 mmHg 82%
    21:00 +17°C° 0 mm 2 m/s 759 mmHg 87%
    22:00 +16°C° 0 mm 2 m/s 759 mmHg 93%
    23:00 +16°C° 0 mm 2 m/s 759 mmHg 94%

    26 Julho, Sexta-feira

    Tempo Temperatura Precipitação Vento Pressão Humidade
    00:00 +16°C° 0 mm 2 m/s 758 mmHg 95%
    01:00 +15°C° 0 mm 2 m/s 758 mmHg 96%
    02:00 +15°C° 0 mm 2 m/s 758 mmHg 96%
    03:00 +16°C° 0 mm 2 m/s 758 mmHg 96%
    04:00 +16°C° 0 mm 2 m/s 758 mmHg 97%
    05:00 +17°C° 0 mm 2 m/s 758 mmHg 92%
    06:00 +19°C° 0 mm 3 m/s 758 mmHg 88%
    07:00 +20°C° 0 mm 3 m/s 758 mmHg 83%
    08:00 +22°C° 0.1 mm 3 m/s 758 mmHg 75%
    09:00 +23°C° 0.1 mm 4 m/s 758 mmHg 67%
    10:00 +25°C° 0.1 mm 4 m/s 758 mmHg 58%
    11:00 +26°C° 0 mm 4 m/s 758 mmHg 57%
    12:00 +26°C° 0 mm 4 m/s 757 mmHg 56%
    13:00 +26°C° 0 mm 5 m/s 757 mmHg 55%
    14:00 +25°C° 0.1 mm 5 m/s 757 mmHg 58%
    15:00 +25°C° 0.1 mm 5 m/s 757 mmHg 62%
    16:00 +23°C° 0.1 mm 5 m/s 756 mmHg 66%
    17:00 +22°C° 0 mm 5 m/s 756 mmHg 71%
    18:00 +21°C° 0 mm 4 m/s 756 mmHg 75%
    19:00 +20°C° 0 mm 3 m/s 756 mmHg 80%
    20:00 +19°C° 0 mm 3 m/s 756 mmHg 85%
    21:00 +18°C° 0 mm 3 m/s 756 mmHg 90%
    22:00 +17°C° 0 mm 2 m/s 756 mmHg 94%
    23:00 +17°C° 0 mm 2 m/s 756 mmHg 94%

    27 Julho, Sábado

    Tempo Temperatura Precipitação Vento Pressão Humidade
    00:00 +17°C° 0 mm 2 m/s 756 mmHg 95%
    01:00 +17°C° 0 mm 2 m/s 756 mmHg 95%
    02:00 +17°C° 0 mm 2 m/s 756 mmHg 95%
    03:00 +17°C° 0 mm 2 m/s 756 mmHg 96%
    04:00 +16°C° 0 mm 3 m/s 756 mmHg 96%
    05:00 +18°C° 0 mm 3 m/s 756 mmHg 92%
    06:00 +19°C° 0 mm 3 m/s 756 mmHg 87%
    07:00 +21°C° 0 mm 4 m/s 756 mmHg 83%
    08:00 +22°C° 0 mm 4 m/s 756 mmHg 77%
    09:00 +25°C° 0 mm 4 m/s 756 mmHg 70%
    10:00 +26°C° 0 mm 4 m/s 756 mmHg 64%
    11:00 +27°C° 0 mm 5 m/s 755 mmHg 62%
    12:00 +28°C° 0 mm 5 m/s 755 mmHg 60%
    13:00 +28°C° 0 mm 5 m/s 755 mmHg 58%
    14:00 +28°C° 0.2 mm 5 m/s 755 mmHg 60%
    15:00 +28°C° 0.2 mm 5 m/s 754 mmHg 62%
    16:00 +28°C° 0.2 mm 5 m/s 754 mmHg 65%
    17:00 +27°C° 0.2 mm 5 m/s 754 mmHg 70%
    18:00 +26°C° 0.2 mm 4 m/s 754 mmHg 75%
    19:00 +25°C° 0.2 mm 3 m/s 754 mmHg 81%
    20:00 +24°C° 0 mm 3 m/s 754 mmHg 84%
    21:00 +22°C° 0 mm 3 m/s 754 mmHg 88%
    22:00 +21°C° 0 mm 3 m/s 754 mmHg 91%
    23:00 +20°C° 0 mm 3 m/s 754 mmHg 92%

    28 Julho, Domingo

    Tempo Temperatura Precipitação Vento Pressão Humidade
    00:00 +20°C° 0 mm 3 m/s 754 mmHg 93%
    01:00 +19°C° 0 mm 3 m/s 754 mmHg 93%
    02:00 +19°C° 0 mm 3 m/s 754 mmHg 94%
    03:00 +19°C° 0 mm 3 m/s 754 mmHg 94%
    04:00 +18°C° 0 mm 3 m/s 754 mmHg 94%
    05:00 +20°C° 0 mm 3 m/s 754 mmHg 89%
    06:00 +21°C° 0 mm 3 m/s 754 mmHg 84%
    07:00 +24°C° 0 mm 3 m/s 755 mmHg 78%
    08:00 +25°C° 0 mm 4 m/s 755 mmHg 71%
    09:00 +27°C° 0 mm 4 m/s 755 mmHg 63%
    10:00 +29°C° 0 mm 5 m/s 755 mmHg 56%
    11:00 +29°C° 0 mm 5 m/s 755 mmHg 55%
    12:00 +30°C° 0 mm 5 m/s 754 mmHg 54%
    13:00 +30°C° 0 mm 5 m/s 754 mmHg 53%
    14:00 +30°C° 0 mm 5 m/s 754 mmHg 55%
    15:00 +30°C° 0 mm 5 m/s 754 mmHg 56%
    16:00 +29°C° 0 mm 5 m/s 754 mmHg 58%
    17:00 +28°C° 0 mm 5 m/s 754 mmHg 64%
    18:00 +26°C° 0 mm 4 m/s 754 mmHg 70%
    19:00 +25°C° 0 mm 4 m/s 754 mmHg 76%
    20:00 +22°C° 0 mm 4 m/s 754 mmHg 80%
    21:00 +21°C° 0 mm 3 m/s 754 mmHg 83%
    22:00 +20°C° 0 mm 2 m/s 755 mmHg 86%
    23:00 +20°C° 0 mm 2 m/s 755 mmHg 88%
    Mostrar mais